Bowling Green, Kentucky, United States (42101)
Lat: 36.99N, Lon: 86.44W
Wx Zone: KYZ071
Local Info
Past Weather Observations for Thursday, April 17, 2014

NOTE: This archive is for the closest National Weather Service station to Bowling Green. Information may differ from the station used for current weather conditions.

Time Weather Temperature Dewpoint Humidity Pressure Winds Precip Visibility
23:55
Clear
46°F / 8°C 39°F / 4°C 76% 30.27 in
(1025 mb)
Calm - 10SM
23:35
Clear
46°F / 8°C 39°F / 4°C 76% 30.27 in
(1025 mb)
Calm - 10SM
23:15
Clear
46°F / 8°C 39°F / 4°C 76% 30.27 in
(1025 mb)
Calm - 10SM
22:55
Clear
46°F / 8°C 39°F / 4°C 76% 30.27 in
(1025 mb)
Calm - 10SM
22:35
Clear
46°F / 8°C 39°F / 4°C 76% 30.27 in
(1025 mb)
Calm - 10SM
22:15
Clear
48°F / 9°C 37°F / 3°C 66% 30.27 in
(1025 mb)
Calm - 10SM
21:55
Clear
48°F / 9°C 37°F / 3°C 66% 30.27 in
(1025 mb)
Calm - 10SM
21:35
Clear
48°F / 9°C 37°F / 3°C 66% 30.27 in
(1025 mb)
Calm - 10SM
21:15
Clear
48°F / 9°C 37°F / 3°C 66% 30.27 in
(1025 mb)
Calm - 10SM
20:55
Clear
48°F / 9°C 37°F / 3°C 66% 30.27 in
(1025 mb)
Calm - 10SM
20:35
Clear
50°F / 10°C 37°F / 3°C 62% 30.27 in
(1025 mb)
Calm - 10SM
20:15
Clear
52°F / 11°C 36°F / 2°C 54% 30.27 in
(1025 mb)
Calm - 10SM
19:55
Clear
54°F / 12°C 34°F / 1°C 47% 30.27 in
(1025 mb)
Calm - 10SM
19:35
Clear
54°F / 12°C 34°F / 1°C 47% 30.27 in
(1025 mb)
Calm - 10SM
19:15
Clear
55°F / 13°C 34°F / 1°C 44% 30.27 in
(1025 mb)
Calm - 10SM
18:55
Clear
57°F / 14°C 32°F / 0°C 39% 30.27 in
(1025 mb)
Calm - 10SM
18:35
Clear
59°F / 15°C 32°F / 0°C 36% 30.27 in
(1025 mb)
Calm - 10SM
18:15
Clear
61°F / 16°C 32°F / 0°C 34% 30.27 in
(1025 mb)
Calm - 10SM
17:55
Clear
63°F / 17°C 34°F / 1°C 34% 30.27 in
(1025 mb)
Calm - 10SM
17:35
Clear
64°F / 18°C 32°F / 0°C 30% 30.27 in
(1025 mb)
Calm - 10SM
17:15
Clear
66°F / 19°C 30°F / -1°C 26% 30.27 in
(1025 mb)
SW 3.5 mph
(SW 6 kph)
- 10SM
16:55
Clear
66°F / 19°C 30°F / -1°C 26% 30.27 in
(1025 mb)
SW 3.5 mph
(SW 6 kph)
- 10SM
16:35
Clear
68°F / 20°C 30°F / -1°C 24% 30.27 in
(1025 mb)
SSE 4.6 mph
(SSE 7 kph)
- 10SM
16:15
Clear
68°F / 20°C 30°F / -1°C 24% 30.27 in
(1025 mb)
SW 8.1 mph
(SW 13 kph)
- 10SM
15:55
Clear
68°F / 20°C 32°F / 0°C 26% 30.27 in
(1025 mb)
S 4.6 mph
(S 7 kph)
- 10SM
15:35
Clear
68°F / 20°C 32°F / 0°C 26% 30.27 in
(1025 mb)
SW 8.1 mph
(SW 13 kph)
- 10SM
15:15
Clear
66°F / 19°C 30°F / -1°C 26% 30.27 in
(1025 mb)
SSE 5.8 mph
(SSE 9 kph)
- 10SM
14:55
Clear
66°F / 19°C 30°F / -1°C 26% 30.27 in
(1025 mb)
S 3.5 mph
(S 6 kph)
- 10SM
14:35
Clear
66°F / 19°C 32°F / 0°C 28% 30.27 in
(1025 mb)
S 6.9 mph
(S 11 kph)
- 10SM
14:15
Clear
66°F / 19°C 30°F / -1°C 26% 30.27 in
(1025 mb)
SW 4.6 mph
(SW 7 kph)
- 10SM
13:55
Clear
66°F / 19°C 30°F / -1°C 26% 30.27 in
(1025 mb)
S 5.8 mph
(S 9 kph)
- 10SM
13:35
Clear
66°F / 19°C 32°F / 0°C 28% 30.3 in
(1026 mb)
S 3.5 mph
(S 6 kph)
- 10SM
13:15
Clear
64°F / 18°C 34°F / 1°C 32% 30.3 in
(1026 mb)
SE 6.9 mph
(SE 11 kph)
- 10SM
12:55
Clear
64°F / 18°C 34°F / 1°C 32% 30.33 in
(1027 mb)
SSE 5.8 mph
(SSE 9 kph)
- 10SM
12:35
Clear
64°F / 18°C 34°F / 1°C 32% 30.33 in
(1027 mb)
SW 4.6 mph
(SW 7 kph)
- 10SM
12:15
Clear
64°F / 18°C 34°F / 1°C 32% 30.33 in
(1027 mb)
S 5.8 mph
(S 9 kph)
- 10SM
11:55
Clear
63°F / 17°C 32°F / 0°C 32% 30.36 in
(1028 mb)
SSE 5.8 mph
(SSE 9 kph)
- 10SM
11:35
Clear
63°F / 17°C 32°F / 0°C 32% 30.36 in
(1028 mb)
SE 6.9 mph
(SE 11 kph)
- 10SM
11:15
Clear
63°F / 17°C 32°F / 0°C 32% 30.36 in
(1028 mb)
S 8.1 mph
(S 13 kph)
- 10SM
10:55
Clear
61°F / 16°C 32°F / 0°C 34% 30.36 in
(1028 mb)
S 9.2 mph
(S 15 kph)
- 10SM
10:35
Clear
61°F / 16°C 32°F / 0°C 34% 30.39 in
(1029 mb)
SSE 10.4 mph
(SSE 17 kph)
- 10SM
10:15
Clear
61°F / 16°C 32°F / 0°C 34% 30.39 in
(1029 mb)
SSE 6.9 mph
(SSE 11 kph)
- 10SM
09:55
Clear
59°F / 15°C 32°F / 0°C 36% 30.39 in
(1029 mb)
SW 8.1 mph
(SW 13 kph)
- 10SM
09:35
Clear
59°F / 15°C 32°F / 0°C 36% 30.39 in
(1029 mb)
SW 5.8 mph
(SW 9 kph)
- 10SM
09:15
Clear
57°F / 14°C 30°F / -1°C 36% 30.39 in
(1029 mb)
S 9.2 mph
(S 15 kph)
- 10SM
08:55
Clear
55°F / 13°C 30°F / -1°C 38% 30.39 in
(1029 mb)
SW 10.4 mph
(SW 17 kph)
- 10SM
08:35
Clear
55°F / 13°C 30°F / -1°C 38% 30.39 in
(1029 mb)
SSE 12.7 mph
(SSE 20 kph)
- 10SM
08:15
Clear
55°F / 13°C 30°F / -1°C 38% 30.39 in
(1029 mb)
S 9.2 mph
(S 15 kph)
- 10SM
07:55
Clear
54°F / 12°C 30°F / -1°C 41% 30.36 in
(1028 mb)
S 9.2 mph
(S 15 kph)
- 10SM
07:35
Clear
52°F / 11°C 30°F / -1°C 44% 30.36 in
(1028 mb)
S 10.4 mph
(S 17 kph)
- 10SM
07:15
Clear
52°F / 11°C 30°F / -1°C 44% 30.36 in
(1028 mb)
S 9.2 mph
(S 15 kph)
- 10SM
06:55
Clear
50°F / 10°C 30°F / -1°C 47% 30.36 in
(1028 mb)
SSE 9.2 mph
(SSE 15 kph)
- 10SM
06:35
Clear
48°F / 9°C 30°F / -1°C 50% 30.36 in
(1028 mb)
S 6.9 mph
(S 11 kph)
- 10SM
06:15
Clear
46°F / 8°C 30°F / -1°C 53% 30.36 in
(1028 mb)
S 5.8 mph
(S 9 kph)
- 10SM
05:55
Clear
46°F / 8°C 30°F / -1°C 53% 30.33 in
(1027 mb)
S 6.9 mph
(S 11 kph)
- 10SM
05:35
Clear
46°F / 8°C 30°F / -1°C 53% 30.33 in
(1027 mb)
S 4.6 mph
(S 7 kph)
- 10SM
05:15
Clear
46°F / 8°C 30°F / -1°C 53% 30.33 in
(1027 mb)
S 4.6 mph
(S 7 kph)
- 10SM
04:55
Clear
46°F / 8°C 30°F / -1°C 53% 30.3 in
(1026 mb)
S 6.9 mph
(S 11 kph)
- 10SM
04:35
Clear
46°F / 8°C 30°F / -1°C 53% 30.3 in
(1026 mb)
S 4.6 mph
(S 7 kph)
- 10SM
04:15
Clear
46°F / 8°C 30°F / -1°C 53% 30.3 in
(1026 mb)
S 5.8 mph
(S 9 kph)
- 10SM
03:55
Clear
46°F / 8°C 30°F / -1°C 53% 30.3 in
(1026 mb)
S 5.8 mph
(S 9 kph)
- 10SM
03:35
Clear
46°F / 8°C 30°F / -1°C 53% 30.27 in
(1025 mb)
S 5.8 mph
(S 9 kph)
- 10SM
03:15
Clear
46°F / 8°C 30°F / -1°C 53% 30.27 in
(1025 mb)
S 5.8 mph
(S 9 kph)
- 10SM
02:55
Clear
48°F / 9°C 30°F / -1°C 50% 30.27 in
(1025 mb)
S 8.1 mph
(S 13 kph)
- 10SM
02:35
Clear
48°F / 9°C 30°F / -1°C 50% 30.27 in
(1025 mb)
S 5.8 mph
(S 9 kph)
- 10SM
02:15
Clear
48°F / 9°C 32°F / 0°C 54% 30.27 in
(1025 mb)
S 5.8 mph
(S 9 kph)
- 10SM
01:55
Clear
48°F / 9°C 32°F / 0°C 54% 30.27 in
(1025 mb)
S 5.8 mph
(S 9 kph)
- 10SM
01:35
Clear
48°F / 9°C 32°F / 0°C 54% 30.24 in
(1024 mb)
S 6.9 mph
(S 11 kph)
- 10SM
01:15
Clear
46°F / 8°C 32°F / 0°C 57% 30.24 in
(1024 mb)
SSE 4.6 mph
(SSE 7 kph)
- 10SM
00:55
Clear
45°F / 7°C 32°F / 0°C 61% 30.24 in
(1024 mb)
SSE 3.5 mph
(SSE 6 kph)
- 10SM
00:35
Clear
43°F / 6°C 32°F / 0°C 66% 30.24 in
(1024 mb)
Calm - 10SM
00:15
Clear
39°F / 4°C 32°F / 0°C 75% 30.24 in
(1024 mb)
Calm - 10SM
Time Weather Temperature Dewpoint Humidity Pressure Winds Precip Visibility


Weather for websites

WeatherForYou.com, LLC is not responsible for any damages or problems caused by this service. Current weather conditions are obtained from the closest station including government and personal stations which may have varying degrees of accuracy. Weather forecasts are derived from the NOAA NDFD. Like all things, this site belongs to Jesus Christ... He just trusts me to maintain it. If you have any questions or comments email webmaster@weatherforyou.com

Copyright © 2014, WeatherForYou.com LLC. All rights reserved.